Asheville, NC

2:12 PM EDT on October 14, 2019 (GMT -0400)
Asheville Regional

Weather History for KAVL - May, 2019

Change the Weather History Date:

Sunday, May 26, 2019

  Actual Average Record
Temperature  
Mean Temperature 75 °F 66 °F  
Max Temperature 90 °F 77 °F 90 °F (2019)
Min Temperature 60 °F 54 °F 34 °F (1925)
Degree Days  
Heating Degree Days 0 2  
Month to date heating degree days 25 101  
Since 1 July heating degree days 3552 4173  
Cooling Degree Days 10 3  
Month to date cooling degree days 110 38  
Year to date cooling degree days 127 46  
Growing Degree Days 25 (Base 50)    
Moisture  
Dew Point 57 °F    
Average Humidity 58    
Maximum Humidity 90    
Minimum Humidity 26    
Precipitation  
Precipitation 0.00 in 0.12 in 1.15 in (1906)
Month to date precipitation 3.35 3.02  
Year to date precipitation 27.14 17.61  
Snow  
Snow 0.00 in 0.00 in 0.00 in ()
Month to date snowfall 0.0 0.0  
Since 1 July snowfall 11.4 9.9  
Snow Depth 0.00 in    
Sea Level Pressure  
Sea Level Pressure 30.10 in    
Wind  
Wind Speed 5 mph (NW)    
Max Wind Speed 14 mph    
Max Gust Speed 19 mph    
Visibility 10 miles    
Events      
T = Trace of Precipitation, MM = Missing Value Source: NWS Daily Summary

Daily Weather History Graph

Daily Weather History Graph

Search for Another Location

Airport or City:

Astronomy

May. 26, 2019 Rise Set
Actual Time 6:18 AM EDT 8:35 PM EDT
Civil Twilight 5:49 AM EDT 9:05 PM EDT
Nautical Twilight 5:14 AM EDT 9:40 PM EDT
Astronomical Twilight 4:35 AM EDT 10:19 PM EDT
Moon 2:12 AM EDT (5/26) 1:10 PM EDT (5/26)
Length of Visible Light 15h 15m
Length of Day
14h 17m
Waning Gibbous, 50% of the Moon is Illuminated
May 26
Waning Gibbous
May 26
Last Quarter
Jun 3
New
Jun 10
First Quarter
Jun 17
Full

Hourly Weather History & Observations

Time (EDT) Temp. Heat Index Dew Point Humidity Pressure Visibility Wind Dir Wind Speed Gust Speed Precip Events Conditions
12:54 AM 68.0 °F - 63.0 °F 84% 30.12 in 10.0 mi Calm Calm - N/A   Clear
1:54 AM 66.9 °F - 60.1 °F 79% 30.12 in 10.0 mi NNW 3.5 mph - N/A   Clear
2:54 AM 64.9 °F - 61.0 °F 87% 30.11 in 10.0 mi Calm Calm - N/A   Clear
3:54 AM 64.0 °F - 60.1 °F 87% 30.12 in 10.0 mi Calm Calm - N/A   Clear
4:54 AM 63.0 °F - 59.0 °F 87% 30.12 in 10.0 mi Calm Calm - N/A   Clear
5:54 AM 62.1 °F - 59.0 °F 90% 30.14 in 10.0 mi Calm Calm - N/A   Clear
6:54 AM 62.1 °F - 57.9 °F 86% 30.16 in 8.0 mi Calm Calm - N/A   Clear
7:54 AM 66.0 °F - 60.1 °F 81% 30.17 in 10.0 mi Calm Calm - N/A   Clear
8:54 AM 72.0 °F - 61.0 °F 68% 30.17 in 10.0 mi Calm Calm - N/A   Partly Cloudy
9:54 AM 77.0 °F - 62.1 °F 60% 30.17 in 10.0 mi Calm Calm - N/A   Clear
10:54 AM 81.0 °F 81.7 °F 61.0 °F 50% 30.15 in 10.0 mi North 8.1 mph - N/A   Clear
11:54 AM 82.9 °F 83.7 °F 62.1 °F 49% 30.14 in 10.0 mi North 10.4 mph - N/A   Clear
12:54 PM 84.9 °F 85.4 °F 62.1 °F 46% 30.13 in 10.0 mi North 12.7 mph 18.4 mph N/A   Clear
1:54 PM 86.0 °F 85.7 °F 60.1 °F 41% 30.11 in 10.0 mi Variable 6.9 mph - N/A   Scattered Clouds
2:54 PM 88.0 °F 87.6 °F 60.1 °F 39% 30.09 in 10.0 mi North 10.4 mph - N/A   Partly Cloudy
3:54 PM 88.0 °F 86.9 °F 57.9 °F 36% 30.07 in 10.0 mi North - - N/A   Partly Cloudy
4:54 PM 90.0 °F 87.7 °F 54.0 °F 29% 30.05 in 10.0 mi NW 10.4 mph - N/A   Clear
5:54 PM 88.0 °F - 48.0 °F 25% 30.04 in 10.0 mi NW 12.7 mph - N/A   Clear
6:54 PM 87.1 °F - 50.0 °F 28% 30.04 in 10.0 mi WNW 11.5 mph - N/A   Clear
7:54 PM 84.0 °F - 50.0 °F 31% 30.04 in 10.0 mi NW 4.6 mph - N/A   Clear
8:54 PM 80.1 °F - 50.0 °F 35% 30.04 in 9.0 mi WNW 4.6 mph - N/A   Clear
9:54 PM 80.1 °F - 48.0 °F 32% 30.05 in 10.0 mi WNW 6.9 mph - N/A   Clear
10:54 PM 77.0 °F - 51.1 °F 40% 30.05 in 10.0 mi Calm Calm - N/A   Clear
11:54 PM 71.1 °F - 54.0 °F 55% 30.04 in 10.0 mi Calm Calm - N/A   Clear